Weather History for KLSV - February, 2014

Change the Weather History Date:

Monday, February 24, 2014

  Actual Average Record
Temperature  
Mean Temperature 58 °F -  
Max Temperature 74 °F 60 °F 84 °F (2004)
Min Temperature 43 °F 40 °F 35 °F (1999)
Degree Days  
Heating Degree Days 6    
Growing Degree Days 8 (Base 50)    
Moisture  
Dew Point 20 °F    
Average Humidity 24    
Maximum Humidity 37    
Minimum Humidity 13    
Precipitation  
Precipitation 0.00 in - - ()
Sea Level Pressure  
Sea Level Pressure 29.98 in    
Wind  
Wind Speed 3 mph (North)    
Max Wind Speed 8 mph    
Max Gust Speed -    
Visibility 10 miles    
Events      
Averages and records for this station are not official NWS values.
T = Trace of Precipitation, MM = Missing Value Source: NWS Daily Summary

Daily Weather History Graph

Daily Weather History Graph

Search for Another Location

Airport or City:

Trip Planner

Search our weather history database for the weather conditions in past years. The results will help you decide how hot, cold, wet, or windy it might be!

Date:

Astronomy

Feb. 24, 2014 Rise Set
Actual Time 6:16 AM PST 5:30 PM PST
Civil Twilight 5:50 AM PST 5:56 PM PST
Nautical Twilight 5:21 AM PST 6:26 PM PST
Astronomical Twilight 4:51 AM PST 6:55 PM PST
Moon 2:14 AM PST (2/24) 12:41 PM PST (2/24)
Length of Visible Light 12h 05m
Length of Day
11h 13m
Waning Crescent, 27% of the Moon is Illuminated
Feb 24
Waning Crescent
Mar 1
New
Mar 8
First Quarter
Mar 16
Full
Mar 23
Last Quarter

Hourly Weather History & Observations

Time (PST) Temp. Windchill Dew Point Humidity Pressure Visibility Wind Dir Wind Speed Gust Speed Precip Events Conditions
12:58 AM 48.9 °F - 18.1 °F 30% 29.97 in 10.0 mi North 2.3 mph - N/A   Clear
1:58 AM 46.0 °F 44.8 °F 18.5 °F 33% 29.98 in 10.0 mi NNW 3.5 mph - N/A   Clear
2:58 AM 47.8 °F - 18.9 °F 32% 29.97 in 10.0 mi WNW 2.3 mph - N/A   Clear
3:58 AM 45.3 °F - 18.3 °F 34% 29.99 in 10.0 mi Calm Calm - N/A   Clear
4:58 AM 45.7 °F 44.4 °F 19.0 °F 35% 30.00 in 10.0 mi NW 3.5 mph - N/A   Clear
5:58 AM 43.5 °F - 18.3 °F 36% 30.01 in 10.0 mi NNW 2.3 mph - N/A   Clear
6:58 AM 44.6 °F 43.1 °F 19.4 °F 37% 30.04 in 10.0 mi NW 3.5 mph - N/A   Clear
7:58 AM 47.5 °F - 20.7 °F 35% 30.05 in 10.0 mi Calm Calm - N/A   Clear
8:58 AM 53.8 °F - 20.8 °F 28% 30.06 in 10.0 mi Calm Calm - N/A   Clear
9:58 AM 62.8 °F - 21.7 °F 21% 30.04 in 10.0 mi NNE 2.3 mph - N/A   Clear
10:58 AM 68.0 °F - 20.7 °F 17% 30.03 in 10.0 mi ENE 6.9 mph - N/A   Clear
11:58 AM 70.0 °F - 21.2 °F 16% 29.99 in 10.0 mi Variable 3.5 mph - N/A   Clear
12:58 PM 72.9 °F - 21.0 °F 14% 29.96 in 10.0 mi Calm Calm - N/A   Clear
1:58 PM 73.4 °F - 21.2 °F 14% 29.94 in 10.0 mi WNW 1.2 mph - N/A   Clear
2:58 PM 73.8 °F - 20.5 °F 13% 29.92 in 10.0 mi Variable 1.2 mph - N/A   Clear
3:58 PM 74.3 °F - 20.1 °F 13% 29.91 in 10.0 mi NE 5.8 mph - N/A   Clear
4:58 PM 73.2 °F - 20.7 °F 14% 29.91 in 10.0 mi East 5.8 mph - N/A   Clear
5:58 PM 68.2 °F - 21.6 °F 17% 29.92 in 10.0 mi ENE 3.5 mph - N/A   Clear
6:58 PM 63.1 °F - 20.7 °F 20% 29.94 in 10.0 mi NNE 8.1 mph - N/A   Clear
7:58 PM 60.3 °F - 20.5 °F 22% 29.96 in 10.0 mi North 8.1 mph - N/A   Clear
8:58 PM 57.7 °F - 20.5 °F 24% 29.96 in 10.0 mi North 3.5 mph - N/A   Clear
9:58 PM 55.0 °F - 20.1 °F 26% 29.96 in 10.0 mi Calm Calm - N/A   Clear
10:58 PM 50.7 °F - 19.6 °F 29% 29.96 in 10.0 mi NNE 2.3 mph - N/A   Clear
11:58 PM 51.8 °F - 19.2 °F 28% 29.96 in 10.0 mi Calm Calm - N/A   Clear